| time (UTC) | temp C | wind direction | speed KPH | gust KPH | rain 1hr cm | rain 24hr cm | rain mn cm | humidity % | barometer mb |
| 20260505011354 | 11 | 0.0 | 0.0 | 0.00 | 0.00 | 0.00 | 69 | 1008.3 | |
| 20260505010858 | 11 | 0.0 | 0.0 | 0.00 | 0.00 | 0.00 | 69 | 1008.2 | |
| 20260505010339 | 11 | 0.0 | 0.0 | 0.00 | 0.00 | 0.00 | 69 | 1008.2 | |
| 20260505005900 | 11 | 0.0 | 0.0 | 0.00 | 0.00 | 0.00 | 68 | 1008.1 | |
| 20260505005343 | 11 | 0.0 | 0.0 | 0.00 | 0.00 | 0.00 | 68 | 1008.1 | |
| 20260505004847 | 11 | 0.0 | 0.0 | 0.00 | 0.00 | 0.00 | 69 | 1008.1 | |
| 20260505004332 | 11 | 0.0 | 0.0 | 0.00 | 0.00 | 0.00 | 69 | 1008.1 | |
| 20260505003857 | 11 | 0.0 | 0.0 | 0.00 | 0.00 | 0.00 | 70 | 1007.9 | |
| 20260505003401 | 10 | 0.0 | 0.0 | 0.00 | 0.00 | 0.00 | 71 | 1008.0 | |
| 20260505002846 | 10 | 0.0 | 0.0 | 0.00 | 0.00 | 0.00 | 71 | 1007.9 | |
| 20260505002330 | 10 | 0.0 | 0.0 | 0.00 | 0.00 | 0.00 | 71 | 1007.8 | |
| 20260505001855 | 10 | 0.0 | 0.0 | 0.00 | 0.00 | 0.00 | 71 | 1007.8 | |
| 20260505001322 | 10 | 0.0 | 0.0 | 0.00 | 0.00 | 0.00 | 70 | 1007.8 | |
| 20260505000827 | 10 | 0.0 | 0.0 | 0.00 | 0.00 | 0.00 | 70 | 1007.7 | |
| 20260505000331 | 10 | 0.0 | 0.0 | 0.00 | 0.00 | 0.00 | 70 | 1007.6 | |
| 20260504235831 | 10 | 0.0 | 0.0 | 0.00 | 0.00 | 0.00 | 69 | 1007.6 | |
| 20260504235336 | 10 | 0.0 | 0.0 | 0.00 | 0.00 | 0.00 | 69 | 1007.6 | |
| 20260504234840 | 11 | 0.0 | 0.0 | 0.00 | 0.00 | 0.00 | 68 | 1007.5 | |
| 20260504234325 | 11 | 0.0 | 0.0 | 0.00 | 0.00 | 0.00 | 68 | 1007.4 | |
| 20260504233830 | 11 | 0.0 | 0.0 | 0.00 | 0.00 | 0.00 | 67 | 1007.3 | |
| 20260504233355 | 11 | 0.0 | 0.0 | 0.00 | 0.00 | 0.00 | 67 | 1007.1 | |
| 20260504232859 | 11 | 0.0 | 0.0 | 0.00 | 0.00 | 0.00 | 67 | 1007.0 | |
| 20260504232322 | 11 | 0.0 | 0.0 | 0.00 | 0.00 | 0.00 | 67 | 1006.8 | |
| 20260504231402 | 11 | 138 | 4.8 | 11.3 | 0.00 | 0.00 | 0.00 | 66 | 1006.8 |
| 20260504230825 | 12 | 111 | 6.4 | 11.3 | 0.00 | 0.00 | 0.00 | 66 | 1006.8 |
| 20260504230350 | 12 | 142 | 8.0 | 12.9 | 0.00 | 0.00 | 0.00 | 66 | 1006.7 |
| 20260504225830 | 12 | 118 | 4.8 | 9.7 | 0.00 | 0.00 | 0.00 | 65 | 1006.6 |
| 20260504225355 | 12 | 191 | 3.2 | 11.3 | 0.00 | 0.00 | 0.00 | 65 | 1006.5 |
| 20260504224858 | 13 | 131 | 3.2 | 11.3 | 0.00 | 0.00 | 0.00 | 64 | 1006.5 |
| 20260504224325 | 13 | 229 | 1.6 | 6.4 | 0.00 | 0.00 | 0.00 | 64 | 1006.5 |
| 20260504223852 | 13 | 206 | 3.2 | 8.0 | 0.00 | 0.00 | 0.00 | 62 | 1006.5 |
| 20260504223334 | 13 | 182 | 1.6 | 8.0 | 0.00 | 0.00 | 0.00 | 61 | 1006.5 |
| 20260504222839 | 14 | 191 | 3.2 | 8.0 | 0.00 | 0.00 | 0.00 | 60 | 1006.6 |
| 20260504222322 | 14 | 190 | 3.2 | 9.7 | 0.00 | 0.00 | 0.00 | 58 | 1006.5 |
| 20260504221827 | 15 | 189 | 6.4 | 9.7 | 0.00 | 0.00 | 0.00 | 57 | 1006.5 |
| 20260504221332 | 15 | 161 | 4.8 | 9.7 | 0.00 | 0.00 | 0.00 | 57 | 1006.5 |
| 20260504220857 | 15 | 202 | 4.8 | 11.3 | 0.00 | 0.00 | 0.00 | 57 | 1006.5 |
| 20260504220359 | 15 | 94 | 3.2 | 8.0 | 0.00 | 0.00 | 0.00 | 57 | 1006.3 |
| 20260504215859 | 15 | 146 | 4.8 | 12.9 | 0.00 | 0.00 | 0.00 | 55 | 1006.3 |
| 20260504215323 | 16 | 143 | 4.8 | 12.9 | 0.00 | 0.00 | 0.00 | 53 | 1006.2 |
| 20260504214828 | 16 | 148 | 6.4 | 14.5 | 0.00 | 0.00 | 0.00 | 52 | 1006.2 |
| 20260504214352 | 17 | 178 | 3.2 | 16.1 | 0.00 | 0.00 | 0.00 | 51 | 1006.2 |
| 20260504213856 | 17 | 197 | 8.0 | 17.7 | 0.00 | 0.00 | 0.00 | 49 | 1006.1 |
| 20260504213358 | 18 | 200 | 4.8 | 14.5 | 0.00 | 0.00 | 0.00 | 49 | 1006.1 |
| 20260504212842 | 18 | 84 | 8.0 | 14.5 | 0.00 | 0.00 | 0.00 | 49 | 1006.1 |
| 20260504212325 | 18 | 186 | 3.2 | 12.9 | 0.00 | 0.00 | 0.00 | 49 | 1006.2 |
| 20260504211850 | 18 | 177 | 6.4 | 16.1 | 0.00 | 0.00 | 0.00 | 48 | 1006.2 |
| 20260504211353 | 19 | 187 | 4.8 | 16.1 | 0.00 | 0.00 | 0.00 | 47 | 1006.3 |
| 20260504210857 | 19 | 164 | 6.4 | 12.9 | 0.00 | 0.00 | 0.00 | 46 | 1006.2 |
| 20260504210344 | 19 | 157 | 6.4 | 14.5 | 0.00 | 0.00 | 0.00 | 47 | 1006.2 |
| 20260504205823 | 19 | 178 | 6.4 | 14.5 | 0.00 | 0.10 | 0.00 | 45 | 1006.1 |
| 20260504205327 | 20 | 180 | 3.2 | 11.3 | 0.00 | 0.10 | 0.00 | 45 | 1006.1 |
| 20260504204852 | 20 | 190 | 4.8 | 14.5 | 0.00 | 0.10 | 0.00 | 45 | 1006.0 |
| 20260504204335 | 20 | 227 | 4.8 | 14.5 | 0.00 | 0.10 | 0.00 | 44 | 1005.9 |
| 20260504203900 | 20 | 163 | 8.0 | 14.5 | 0.00 | 0.10 | 0.00 | 44 | 1005.9 |
| 20260504203322 | 20 | 165 | 3.2 | 14.5 | 0.00 | 0.10 | 0.00 | 44 | 1005.8 |
| 20260504202847 | 20 | 206 | 6.4 | 14.5 | 0.00 | 0.10 | 0.00 | 47 | 1005.9 |
| 20260504202330 | 20 | 186 | 6.4 | 14.5 | 0.00 | 0.10 | 0.00 | 44 | 1005.8 |
| 20260504201855 | 19 | 115 | 4.8 | 14.5 | 0.00 | 0.10 | 0.00 | 46 | 1005.9 |
| 20260504201359 | 19 | 168 | 6.4 | 14.5 | 0.00 | 0.10 | 0.00 | 45 | 1006.0 |
| 20260504200843 | 19 | 117 | 4.8 | 14.5 | 0.00 | 0.10 | 0.00 | 45 | 1005.9 |
| 20260504200344 | 18 | 187 | 3.2 | 11.3 | 0.00 | 0.10 | 0.00 | 49 | 1005.9 |
| 20260504195824 | 18 | 126 | 4.8 | 16.1 | 0.00 | 0.23 | 0.00 | 48 | 1006.1 |
| 20260504195349 | 18 | 167 | 6.4 | 16.1 | 0.00 | 0.23 | 0.00 | 49 | 1006.1 |
| 20260504194854 | 17 | 157 | 6.4 | 11.3 | 0.00 | 0.23 | 0.00 | 50 | 1006.1 |
| 20260504194357 | 17 | 183 | 4.8 | 14.5 | 0.00 | 0.23 | 0.00 | 52 | 1006.0 |
| 20260504193821 | 17 | 184 | 1.6 | 14.5 | 0.00 | 0.23 | 0.00 | 50 | 1006.0 |
| 20260504193326 | 17 | 235 | 4.8 | 14.5 | 0.00 | 0.23 | 0.00 | 49 | 1006.0 |
| 20260504192851 | 16 | 204 | 4.8 | 14.5 | 0.00 | 0.23 | 0.00 | 51 | 1006.0 |
| 20260504192354 | 16 | 199 | 0.0 | 9.7 | 0.00 | 0.23 | 0.00 | 53 | 1006.2 |
| 20260504191836 | 16 | 155 | 1.6 | 9.7 | 0.00 | 0.23 | 0.00 | 53 | 1006.4 |
| 20260504191325 | 16 | 168 | 3.2 | 9.7 | 0.00 | 0.23 | 0.00 | 53 | 1006.4 |
| 20260504190830 | 16 | 148 | 4.8 | 9.7 | 0.00 | 0.23 | 0.00 | 55 | 1006.5 |
| 20260504190355 | 15 | 156 | 4.8 | 8.0 | 0.00 | 0.23 | 0.00 | 55 | 1006.6 |
| 20260504185855 | 15 | 160 | 0.0 | 6.4 | 0.00 | 0.41 | 0.00 | 57 | 1006.6 |
| 20260504185339 | 15 | 160 | 3.2 | 8.0 | 0.00 | 0.41 | 0.00 | 54 | 1006.6 |
| 20260504184823 | 15 | 174 | 1.6 | 11.3 | 0.00 | 0.41 | 0.00 | 54 | 1006.6 |
| 20260504184347 | 15 | 234 | 6.4 | 14.5 | 0.00 | 0.41 | 0.00 | 52 | 1006.6 |
| 20260504183851 | 16 | 176 | 6.4 | 16.1 | 0.00 | 0.41 | 0.00 | 50 | 1006.7 |
| 20260504183355 | 16 | 186 | 6.4 | 17.7 | 0.00 | 0.41 | 0.00 | 51 | 1006.6 |
| 20260504182838 | 16 | 205 | 8.0 | 17.7 | 0.00 | 0.41 | 0.00 | 50 | 1006.7 |
| 20260504182322 | 16 | 231 | 3.2 | 19.3 | 0.00 | 0.41 | 0.00 | 52 | 1006.6 |
| 20260504181848 | 16 | 215 | 8.0 | 20.9 | 0.00 | 0.41 | 0.00 | 51 | 1006.7 |
| 20260504181351 | 15 | 187 | 8.0 | 20.9 | 0.00 | 0.41 | 0.00 | 53 | 1006.5 |
| 20260504180855 | 15 | 182 | 4.8 | 17.7 | 0.00 | 0.41 | 0.00 | 53 | 1006.5 |
| 20260504180400 | 15 | 163 | 4.8 | 17.7 | 0.00 | 0.41 | 0.00 | 55 | 1006.3 |
| 20260504175900 | 15 | 159 | 3.2 | 12.9 | 0.00 | 0.64 | 0.00 | 54 | 1006.2 |
| 20260504175344 | 15 | 108 | 4.8 | 12.9 | 0.00 | 0.64 | 0.00 | 55 | 1006.2 |
| 20260504174848 | 15 | 169 | 4.8 | 16.1 | 0.00 | 0.64 | 0.00 | 54 | 1006.2 |
| 20260504174330 | 15 | 178 | 4.8 | 16.1 | 0.00 | 0.64 | 0.00 | 52 | 1006.2 |
| 20260504173835 | 16 | 165 | 6.4 | 17.7 | 0.00 | 0.64 | 0.00 | 52 | 1006.2 |
| 20260504173323 | 16 | 189 | 9.7 | 25.7 | 0.00 | 0.64 | 0.00 | 49 | 1006.2 |
| 20260504172828 | 17 | 159 | 8.0 | 25.7 | 0.00 | 0.64 | 0.00 | 48 | 1006.2 |
| 20260504172353 | 17 | 174 | 9.7 | 19.3 | 0.00 | 0.64 | 0.00 | 48 | 1006.1 |
| 20260504171856 | 17 | 132 | 9.7 | 27.4 | 0.00 | 0.64 | 0.00 | 47 | 1006.2 |
| 20260504171400 | 17 | 154 | 9.7 | 27.4 | 0.00 | 0.64 | 0.00 | 47 | 1006.2 |
| 20260504170823 | 17 | 155 | 11.3 | 27.4 | 0.00 | 0.64 | 0.00 | 47 | 1006.2 |
| 20260504170328 | 16 | 210 | 6.4 | 22.5 | 0.00 | 0.64 | 0.00 | 49 | 1006.1 |
| 20260504160321 | 17 | 182 | 8.0 | 24.1 | 0.00 | 0.86 | 0.00 | 53 | 1006.5 |
| 20260504150843 | 16 | 134 | 11.3 | 22.5 | 0.00 | 1.14 | 0.00 | 50 | 1007.5 |
| 20260504150326 | 16 | 176 | 8.0 | 22.5 | 0.00 | 1.14 | 0.00 | 51 | 1007.5 |
| 20260504141330 | 16 | 159 | 6.4 | 16.1 | 0.00 | 1.40 | 0.00 | 50 | 1007.7 |
| 20260504140856 | 16 | 173 | 4.8 | 16.1 | 0.00 | 1.40 | 0.00 | 49 | 1007.8 |
| 20260504140359 | 16 | 215 | 6.4 | 16.1 | 0.00 | 1.40 | 0.00 | 47 | 1007.9 |
| 20260504130323 | 14 | 180 | 9.7 | 22.5 | 0.00 | 1.68 | 0.00 | 45 | 1008.4 |
| 20260504110346 | 10 | 153 | 4.8 | 12.9 | 0.00 | 2.13 | 0.00 | 62 | 1008.4 |
| 20260504100331 | 5 | 215 | 1.6 | 9.7 | 0.00 | 2.36 | 0.00 | 77 | 1008.0 |
| 20260504081845 | 6 | 0.0 | 0.0 | 0.00 | 2.59 | 0.00 | 73 | 1007.6 | |
| 20260504081328 | 6 | 0.0 | 0.0 | 0.00 | 2.59 | 0.00 | 73 | 1007.5 | |
| 20260504080853 | 5 | 0.0 | 0.0 | 0.00 | 2.59 | 0.00 | 73 | 1007.5 | |
| 20260504080355 | 5 | 0.0 | 0.0 | 0.00 | 2.59 | 0.00 | 73 | 1007.5 | |
| 20260504070324 | 5 | 0.0 | 0.0 | 0.00 | 2.77 | 0.00 | 73 | 1007.0 | |
| 20260504050338 | 5 | 0.0 | 0.0 | 0.00 | 2.97 | 0.00 | 72 | 1006.2 | |
| 20260504045859 | 5 | 0.0 | 0.0 | 0.00 | 2.97 | 2.97 | 72 | 1006.2 | |
| 20260504045343 | 6 | 0.0 | 0.0 | 0.00 | 2.97 | 2.97 | 72 | 1006.2 | |
| 20260504044830 | 5 | 0.0 | 0.0 | 0.00 | 2.97 | 2.97 | 72 | 1006.1 | |
| 20260504044335 | 6 | 0.0 | 0.0 | 0.00 | 2.97 | 2.97 | 72 | 1006.2 | |
| 20260504043840 | 6 | 0.0 | 0.0 | 0.00 | 2.97 | 2.97 | 72 | 1006.1 | |
| 20260504043344 | 6 | 0.0 | 0.0 | 0.00 | 2.97 | 2.97 | 72 | 1006.1 | |
| 20260504042850 | 6 | 0.0 | 0.0 | 0.00 | 2.97 | 2.97 | 72 | 1006.1 | |
| 20260504042333 | 6 | 0.0 | 0.0 | 0.00 | 2.97 | 2.97 | 71 | 1006.1 | |
| 20260504041858 | 6 | 0.0 | 0.0 | 0.00 | 2.97 | 2.97 | 71 | 1006.0 | |
| 20260504041321 | 6 | 0.0 | 0.0 | 0.00 | 2.97 | 2.97 | 71 | 1006.0 | |
| 20260504040846 | 6 | 0.0 | 0.0 | 0.00 | 2.97 | 2.97 | 71 | 1006.0 | |
| 20260504040349 | 6 | 0.0 | 0.0 | 0.00 | 2.97 | 2.97 | 71 | 1005.9 | |
| 20260504035850 | 6 | 0.0 | 0.0 | 0.00 | 2.97 | 2.97 | 72 | 1005.9 | |
| 20260504035354 | 6 | 0.0 | 0.0 | 0.00 | 2.97 | 2.97 | 72 | 1005.8 | |
| 20260504034857 | 6 | 0.0 | 0.0 | 0.00 | 2.97 | 2.97 | 73 | 1005.7 | |
| 20260504034340 | 6 | 0.0 | 0.0 | 0.00 | 2.97 | 2.97 | 73 | 1005.7 | |
| 20260504033825 | 6 | 0.0 | 0.0 | 0.00 | 2.97 | 2.97 | 73 | 1005.8 | |
| 20260504033329 | 6 | 0.0 | 0.0 | 0.00 | 2.97 | 2.97 | 73 | 1005.7 | |
| 20260504032854 | 6 | 0.0 | 0.0 | 0.00 | 2.97 | 2.97 | 72 | 1005.6 | |
| 20260504032337 | 6 | 0.0 | 0.0 | 0.00 | 2.97 | 2.97 | 71 | 1005.7 | |
| 20260504031826 | 6 | 0.0 | 0.0 | 0.00 | 2.97 | 2.97 | 71 | 1005.6 | |
| 20260504031331 | 6 | 0.0 | 0.0 | 0.00 | 2.97 | 2.97 | 70 | 1005.5 | |
| 20260504030836 | 6 | 0.0 | 0.0 | 0.00 | 2.97 | 2.97 | 69 | 1005.5 | |
| 20260504030341 | 6 | 0.0 | 0.0 | 0.00 | 2.97 | 2.97 | 68 | 1005.5 | |
| 20260504025821 | 7 | 0.0 | 0.0 | 0.00 | 2.97 | 2.97 | 67 | 1005.4 | |
| 20260504025346 | 7 | 0.0 | 0.0 | 0.00 | 2.97 | 2.97 | 65 | 1005.3 | |
| 20260504024850 | 7 | 0.0 | 0.0 | 0.00 | 2.97 | 2.97 | 65 | 1005.3 | |
| 20260504024333 | 7 | 0.0 | 0.0 | 0.00 | 2.97 | 2.97 | 64 | 1005.3 | |
| 20260504023858 | 7 | 0.0 | 0.0 | 0.00 | 2.97 | 2.97 | 63 | 1005.3 | |
| 20260504023342 | 7 | 0.0 | 0.0 | 0.00 | 2.97 | 2.97 | 62 | 1005.3 | |
| 20260504022827 | 7 | 0.0 | 0.0 | 0.00 | 2.97 | 2.97 | 63 | 1005.2 | |
| 20260504022331 | 7 | 0.0 | 0.0 | 0.00 | 2.97 | 2.97 | 63 | 1005.2 | |
| 20260504021856 | 7 | 0.0 | 0.0 | 0.00 | 2.97 | 2.97 | 63 | 1005.2 | |
| 20260504021339 | 7 | 0.0 | 0.0 | 0.00 | 2.97 | 2.97 | 64 | 1005.1 | |
| 20260504020844 | 7 | 0.0 | 0.0 | 0.00 | 2.97 | 2.97 | 64 | 1005.1 | |
| 20260504015858 | 8 | 0.0 | 0.0 | 0.00 | 2.97 | 2.97 | 63 | 1005.0 | |
| 20260504015401 | 8 | 0.0 | 0.0 | 0.00 | 2.97 | 2.97 | 63 | 1005.0 | |
| 20260504014824 | 8 | 0.0 | 0.0 | 0.00 | 2.97 | 2.97 | 64 | 1004.9 | |
| 20260504014329 | 8 | 0.0 | 0.0 | 0.00 | 2.97 | 2.97 | 65 | 1004.8 | |
| 20260504013348 | 8 | 0.0 | 0.0 | 0.00 | 2.97 | 2.97 | 68 | 1004.7 | |
| 20260504012851 | 8 | 0.0 | 0.0 | 0.00 | 2.97 | 2.97 | 67 | 1004.6 | |
| 20260504012334 | 8 | 0.0 | 0.0 | 0.00 | 2.97 | 2.97 | 68 | 1004.5 | |
| 20260504011859 | 8 | 0.0 | 0.0 | 0.00 | 2.97 | 2.97 | 71 | 1004.4 |